Location: Dana
(41.8364°N, 106.7042°W)
Time: 14:13:51
(UTC+00:00)

Transit 2A - Pass Details

Date: 17 May 2026
Orbit: 595 x 948 km, 66.7° (Epoch: 8 June)

Event Time Altitude Azimuth Distance (km) Brightness Sun altitude
Rises 22:27:35 0° 218° (SW) 3,591 10.0 41.6°
Reaches altitude 10° 22:30:12 10° 221° (SW) 2,631 9.5 41.1°
Maximum altitude 22:36:19 65° 302° (WNW) 980 7.7 40.0°
Drops below altitude 10° 22:42:03 10° 25° (NNE) 2,466 8.5 38.9°
Sets 22:44:26 0° 28° (NNE) 3,351 9.0 38.5°
